Content
SEND FEEDBACK

Daily
Averages
Monthly
Summary
United States of America

DAIRY, OREGON


Home > North America > United States > Oregon
Elevation: 4168 feet     Latitude: 42 13N     Longitude: 121 47W

WEATHER
 
SELECT A DAY
Number of Records: 206,016;   Date Range: 1/1/95 - 12/16/14
 
SHARE

PRINT THIS DATA

[ ← Previous Day ]
WEATHER ALMANAC - FEBRUARY 13, 2013
[ Next Day → ]
[ °C ]   °F
Weather ElementAverageHighLow
Temperature36.5 °F51.1 °F (2:53 pm)25 °F (2:53 am)
Dewpoint29.2 °F32 °F (10:53 am)23 °F (2:53 am)
Humidity77.5 %100 % (6:00 am)44 % (1:53 pm)
Barometer30.40 in30.46 in (7:53 am)30.33 in (3:53 pm)
Wind Speed3.3 mph12.7 mph (4:53 pm)
Weather ElementAverage
Visibility9.8 mi
Wind DirectionSSE (160.8 °)

Weather ElementTotal
Precipitation---
Heating Degree Days27 (Base 65)
Averaged from 24 records on February 13, 2013
WEATHER CONDITIONS BREAKOUT
WIND DIRECTION BREAKOUT
WEATHER BY HOUR - FEBRUARY 13, 2013
[ °C ]   °F
Local TimeTemperatureDewpointHumidityBarometerVisibilityWind DirectionWind SpeedGust SpeedPrecipitationEventsConditions
1:53 AM26.1 °F24.1 °F92 %30.43 in10.0 miNNW (340°)5.8 mphClear
2:53 AM25.0 °F23.0 °F92 %30.43 in10.0 miEast (90°)3.5 mphScattered Clouds
3:53 AM28.0 °F27.0 °F96 %30.40 in10.0 miNorth (360°)3.5 mphOvercast
4:53 AM28.9 °F27.0 °F92 %30.41 in10.0 miCalmOvercast
5:53 AM28.9 °F28.0 °F96 %30.43 in10.0 miCalmOvercast
6:00 AM28.4 °F28.4 °F100 %30.38 in7.0 miCalmOvercast
6:53 AM30.0 °F28.0 °F92 %30.43 in7.0 miCalmOvercast
7:53 AM30.0 °F28.9 °F96 %30.46 in10.0 miCalmMostly Cloudy
8:53 AM32.0 °F28.9 °F88 %30.45 in10.0 miCalmMostly Cloudy
9:53 AM35.1 °F30.9 °F85 %30.46 in10.0 miCalmScattered Clouds
10:53 AM39.0 °F32.0 °F76 %30.44 in10.0 miCalmScattered Clouds
11:53 AM43.0 °F30.9 °F62 %30.43 in10.0 miCalmScattered Clouds
12:53 PM46.9 °F32.0 °F56 %30.39 in10.0 miCalmPartly Cloudy
1:53 PM50.0 °F28.9 °F44 %30.36 in10.0 miNW (320°)3.5 mphPartly Cloudy
2:53 PM51.1 °F30.9 °F46 %30.35 in10.0 miWest (280°)8.1 mphScattered Clouds
3:53 PM51.1 °F30.9 °F46 %30.33 in10.0 miNNW (340°)8.1 mphScattered Clouds
4:53 PM46.9 °F32.0 °F56 %30.34 in10.0 miNNW (340°)12.7 mphMostly Cloudy
5:53 PM43.0 °F30.9 °F62 %30.35 in10.0 miNorth (350°)4.6 mphMostly Cloudy
6:53 PM41.0 °F30.9 °F67 %30.36 in10.0 miWNW (300°)10.4 mphMostly Cloudy
7:53 PM39.0 °F32.0 °F76 %30.38 in10.0 miNW (320°)8.1 mphScattered Clouds
8:53 PM36.0 °F30.0 °F79 %30.40 in10.0 miNW (310°)3.5 mphScattered Clouds
9:53 PM32.0 °F28.9 °F88 %30.42 in10.0 miWSW (240°)3.5 mphScattered Clouds
10:53 PM33.1 °F28.9 °F85 %30.42 in10.0 miWest (270°)3.5 mphClear
11:53 PM30.9 °F28.0 °F89 %30.41 in10.0 miCalmClear
Hourly data recorded from KLMT, located miles away from Dairy, Oregon







STORIES FROM OUR PARTNERS